Regional Weather Roundup
Issued by NWS Spokane, WA

Home | Current Version | Previous Version | Text Only | Print | Product List | Glossary On
Versions: 1 2 3 4 5 6 7 8 9 10 11 12 13 14 15 16 17 18 19 20 21 22 23 24 25 26 27 28 29 30 31 32 33 34 35 36 37 38 39 40 41 42 43 44 45 46 47 48 49 50
000
NZUS01 KOTX 221605
RWROTX

Eastern Washington/Northern Idaho Roundup
National Weather Service, Spokane WA
800 AM PST WED NOV 22 2017

Note: "fair" indicated few or no clouds below 12,000 feet with no
significant weather and/or obstructions to visibility.

...Northeast Washington and Northern Idaho Panhandle...

CITY           SKY/WX    TMP DP  RH WIND       PRES   REMARKS
Spokane Intl   CLOUDY    44  44 100 CALM      30.11R FOG
Spokane Downto CLOUDY    45  43  93 CALM      30.12R
Coeur d Alene  CLOUDY    48  48 100 NE3       30.13R
Deer Park      CLOUDY    45  45 100 CALM      30.13R FOG
Sandpoint      CLOUDY    45  45 100 NE5       30.12R
Bonners Ferry  MIX PCPN  37  37 100 CALM      30.13S VSB<1/4

...Southeast Washington and southern Idaho Panhandle...

CITY           SKY/WX    TMP DP  RH WIND       PRES   REMARKS
Walla Walla    CLOUDY    51  49  92 SW7       30.10R
Pullman/Moscow CLOUDY    54  49  83 VRB3      30.16R
Lewiston       LGT RAIN  51  50  96 NE5       30.15S
Lowell           N/A     42  41  96 N3        30.28S
Grangeville    CLOUDY    54  50  87 S14G21    30.20R

...Columbia Basin...

CITY           SKY/WX    TMP DP  RH WIND       PRES   REMARKS
Ephrata        CLOUDY    40  35  83 N6        30.11R HAZE
Moses Lake     FOG       40  40 100 N5        30.12R VSB 1/2
Pasco          CLOUDY    45  43  93 NW3       30.13R FOG
Richland       CLOUDY    43  43  98 W5        30.14R
Hermiston      CLOUDY    44  44 100 CALM      30.11R FOG
Pendleton      CLOUDY    51  49  92 VRB3      30.10R

...East Slopes Cascades...

CITY           SKY/WX    TMP DP  RH WIND       PRES   REMARKS
The Dalles     CLOUDY    46  44  93 CALM      30.13R FOG
Yakima         CLOUDY    41  39  93 W3        30.12R
Ellensburg     CLOUDY    37  35  92 NE3       30.10R FOG
Stampede Pass  CLOUDY    44  31  60 NE3       30.06S HAZE
Wenatchee      CLOUDY    37  37 100 CALM      30.12R
Omak           CLOUDY    40  40 100 CALM      30.13R
Sunnyside      CLOUDY    41  40  97 CALM      30.11F FOG

...Southern British Columbia...

CITY           SKY/WX    TMP DP  RH WIND       PRES   REMARKS
Penticton      LGT RAIN  43  41  93 S13G20    30.09S

...Western Montana...

CITY           SKY/WX    TMP DP  RH WIND       PRES   REMARKS
Kalispell      CLOUDY    41  41 100 CALM      30.12R
Missoula       CLOUDY    38  38 100 CALM      30.21R FOG

...Neighboring Cities...

CITY           SKY/WX    TMP DP  RH WIND       PRES   REMARKS
Seattle        MOCLDY    59  56  89 S5        29.97S
Portland       CLOUDY    51  50  96 E14       30.03S
Boise          MOCLDY    51  49  92 CALM      30.30R
Great Falls    CLOUDY    56  40  55 SW23G33   30.01R



USA.gov is the U.S. government's official web portal to all federal, state and local government web resources and services.